This is the latest recevied weather packets stored in our database for station/object K6TTR. If no packets are shown the sender has not sent any weather packets the latest 10 day(s).
| Time | Temp. | Humidity | Pressure | Rain* | Wind** | Luminosity | Snow |
|---|---|---|---|---|---|---|---|
| 1787767040 | 25° C | 35% | 1022.8 hPa | 0 mm | - | 724 W/m² | - |
| 1787766739 | 25° C | 36% | 1022.9 hPa | 0 mm | - | 766 W/m² | - |
| 1787766441 | 25° C | 35% | 1022.8 hPa | 0 mm | - | 759 W/m² | - |
| 1787766142 | 24.44° C | 37% | 1022.8 hPa | 0 mm | - | 703 W/m² | - |
| 1787765840 | 24.44° C | 38% | 1022.9 hPa | 0 mm | - | 76 W/m² | - |
| 1787765541 | 23.89° C | 38% | 1022.9 hPa | 0 mm | - | 81 W/m² | - |
| 1787765240 | 23.89° C | 37% | 1022.9 hPa | 0 mm | - | 79 W/m² | - |
| 1787764939 | 23.89° C | 40% | 1022.9 hPa | 0 mm | - | 53 W/m² | - |
| 1787764633 | 23.33° C | 42% | 1023 hPa | 0 mm | - | 53 W/m² | - |
| 1787764356 | 23.33° C | 42% | 1022.9 hPa | 0 mm | - | 60 W/m² | - |
| 1787764054 | 22.78° C | 43% | 1022.8 hPa | 0 mm | - | 63 W/m² | - |
| 1787763754 | 22.78° C | 44% | 1022.8 hPa | 0 mm | - | 90 W/m² | - |
| 1787763453 | 22.22° C | 44% | 1022.9 hPa | 0 mm | - | 62 W/m² | - |
| 1787763152 | 21.67° C | 44% | 1022.8 hPa | 0 mm | - | 81 W/m² | - |
| 1787762849 | 21.67° C | 45% | 1022.8 hPa | 0 mm | - | 93 W/m² | - |
| 1787762549 | 21.11° C | 46% | 1022.8 hPa | 0 mm | - | 70 W/m² | - |
| 1787762246 | 20.56° C | 48% | 1022.8 hPa | 0 mm | - | 49 W/m² | - |
| 1787761947 | 20° C | 50% | 1022.8 hPa | 0 mm | - | 76 W/m² | - |
| 1787761645 | 19.44° C | 54% | 1022.9 hPa | 0 mm | - | 167 W/m² | - |
| 1787761348 | 18.89° C | 55% | 1022.9 hPa | 0 mm | - | 311 W/m² | - |
| 1787761046 | 18.33° C | 57% | 1023 hPa | 0 mm | - | 91 W/m² | - |
| 1787760749 | 17.78° C | 61% | 1023.1 hPa | 0 mm | - | 76 W/m² | - |
| 1787760447 | 17.22° C | 61% | 1023.1 hPa | 0 mm | - | 53 W/m² | - |
| 1787760147 | 16.11° C | 64% | 1023.3 hPa | 0 mm | - | 135 W/m² | - |
| 1787759845 | 15.56° C | 67% | 1023.2 hPa | 0 mm | - | 422 W/m² | - |
* Rain latest hour (hover to see other rain measurements)
** Current wind speed in m/s (hover to see current wind gust speed)